SCP
0 0 0 0 0 0 0 0 0 0 0 0 0 0 0 0 0 0 0 0 0 0
0 0 0 0 0 0 0 0 0 0 0 0 0 0 0 0 0 0 0 0 -0 -0
0 0 0 0 0 0 0 0 0 0 0 0 0 0 0 0 0 0 0 0 -0 -0
0 0 0 0 0 0 0 0 0 0 0 0 0 0 0 0 0 0 0 0 -0 -0
0 0 0 0 0 0 0 0 0 0 0 0 0 0 0 0 0 0 0 0 0 -0
0 0 0 0 0 0 0 0 0 0 0 0 0 0 0 0 0 0 0 0 -0 -0
0 0 0 0 0 0 0 -0 -0 0 0 0 -0 0 0 0 0 0 0 0 -0 -0
0 0 0 0 0 0 0 0 0 0 0 0 -0 0 0 0 0 0 0 -0 -0 -0
0 0 0 0 0 0 0 0 0 0 0 0 0 0 -0 -0 0 -0 0 0 0 -0
0 0 0 0 0 0 0 0 0 0 0 0 0 -0 -0 0 0 0 0 -0 0 0
-0 -0 -0 -0 -0 0 0 0 0 0 0 0 0 0 -0 -0 -0 -0 0 -0 -0 -0
-0 -0 -0 -0 -0 -0 0 0 0 0 0 0 0 0 -0 -0 -0 -0 0 -0 -0 0
-0 -0 -0 -0 -0 0 0 0 0 0 0 0 0 0 -0 -0 -0 -0 0 0 0 -0
-0 -0 -0 -0 -0 -0 0 0 0 0 0 0 0 0 0 -0 -0 0 0 0 0 -0
Wind_Speed_500mb
29 31 31 28 30 31 32 27 24 25 27 29 28 25 19 19 19 19 19 20 22 22
34 33 35 36 34 31 27 24 23 23 26 26 23 20 17 17 18 16 17 17 16 17
37 37 34 31 29 26 23 20 19 23 25 23 20 18 17 17 16 16 16 16 15 16
42 35 30 29 27 22 19 17 21 22 22 21 20 18 17 15 15 17 18 20 16 15
38 33 31 27 22 20 20 22 22 21 20 19 17 17 14 14 16 16 16 20 21 15
33 29 26 24 23 23 24 21 21 20 20 17 14 10 9 13 13 15 15 22 24 23
32 30 27 23 23 26 23 22 23 21 17 11 7 8 9 9 10 11 14 16 16 21
33 28 23 21 27 28 28 26 21 16 11 5 6 8 8 7 8 10 13 15 19 17
29 22 19 24 33 30 28 22 17 13 3 7 3 4 7 7 7 11 18 8 19 16
25 18 22 30 35 32 25 19 16 9 5 3 2 3 8 6 5 5 9 9 18 15
22 21 26 28 34 30 21 18 17 5 3 2 7 9 9 7 4 8 12 12 20 24
23 24 26 31 33 26 22 20 13 5 6 8 9 10 9 7 9 12 12 13 20 27
23 19 21 31 29 23 23 18 12 6 12 11 12 12 10 9 7 10 12 17 20 22
23 18 19 28 27 24 27 21 13 11 16 11 10 12 15 11 9 10 13 19 22 25
Wind_Direction_500mb
166 162 161 163 167 171 172 178 189 208 219 229 243 248 228 224 220 224 222 225 231 229
160 159 158 155 158 165 173 185 197 212 226 235 228 213 216 214 209 210 211 205 216 221
157 154 156 162 169 173 183 195 213 222 220 204 199 198 190 184 185 196 206 220 223 229
151 156 162 170 173 181 194 201 203 190 182 185 184 186 190 197 209 216 224 231 232 228
158 162 167 175 182 180 177 174 171 173 174 179 184 193 200 218 229 227 224 219 220 210
159 162 166 169 166 167 168 164 161 160 157 157 172 189 217 225 222 221 232 228 222 215
153 155 158 155 165 168 164 160 153 152 152 154 184 215 218 210 223 224 239 231 202 203
152 158 163 166 168 163 157 153 153 151 151 198 260 227 205 215 224 234 237 222 210 215
160 164 173 172 168 162 164 166 167 155 177 291 226 194 178 193 229 247 246 226 190 206
165 166 165 165 169 167 167 170 170 176 287 259 229 205 184 182 229 236 175 181 184 175
169 163 160 163 169 169 170 174 174 184 250 142 117 124 136 152 171 147 146 148 168 162
166 161 164 167 169 169 176 175 172 175 154 128 125 129 136 132 140 152 162 154 161 176
157 153 165 181 179 178 178 179 177 170 152 129 122 122 128 119 107 130 133 140 145 174
145 146 159 173 178 183 186 182 185 169 157 138 127 116 115 111 90 125 146 148 150 152
Wind_Speed_850mb
29 31 31 28 30 31 32 27 24 25 27 29 28 25 19 19 19 19 19 20 22 22
34 33 35 36 34 31 27 24 23 23 26 26 23 20 17 17 18 16 17 17 16 17
37 37 34 31 29 26 23 20 19 23 25 23 20 18 17 17 16 16 16 16 15 16
42 35 30 29 27 22 19 17 21 22 22 21 20 18 17 15 15 17 18 20 16 15
38 33 31 27 22 20 20 22 22 21 20 19 17 17 14 14 16 16 16 20 21 15
33 29 26 24 23 23 24 21 21 20 20 17 14 10 9 13 13 15 15 22 24 23
32 30 27 23 23 26 23 22 23 21 17 11 7 8 9 9 10 11 14 16 16 21
33 28 23 21 27 28 28 26 21 16 11 5 6 8 8 7 8 10 13 15 19 17
29 22 19 24 33 30 28 22 17 13 3 7 3 4 7 7 7 11 18 8 19 16
25 18 22 30 35 32 25 19 16 9 5 3 2 3 8 6 5 5 9 9 18 15
22 21 26 28 34 30 21 18 17 5 3 2 7 9 9 7 4 8 12 12 20 24
23 24 26 31 33 26 22 20 13 5 6 8 9 10 9 7 9 12 12 13 20 27
23 19 21 31 29 23 23 18 12 6 12 11 12 12 10 9 7 10 12 17 20 22
23 18 19 28 27 24 27 21 13 11 16 11 10 12 15 11 9 10 13 19 22 25
Wind_Direction_850mb
166 162 161 163 167 171 172 178 189 208 219 229 243 248 228 224 220 224 222 225 231 229
160 159 158 155 158 165 173 185 197 212 226 235 228 213 216 214 209 210 211 205 216 221
157 154 156 162 169 173 183 195 213 222 220 204 199 198 190 184 185 196 206 220 223 229
151 156 162 170 173 181 194 201 203 190 182 185 184 186 190 197 209 216 224 231 232 228
158 162 167 175 182 180 177 174 171 173 174 179 184 193 200 218 229 227 224 219 220 210
159 162 166 169 166 167 168 164 161 160 157 157 172 189 217 225 222 221 232 228 222 215
153 155 158 155 165 168 164 160 153 152 152 154 184 215 218 210 223 224 239 231 202 203
152 158 163 166 168 163 157 153 153 151 151 198 260 227 205 215 224 234 237 222 210 215
160 164 173 172 168 162 164 166 167 155 177 291 226 194 178 193 229 247 246 226 190 206
165 166 165 165 169 167 167 170 170 176 287 259 229 205 184 182 229 236 175 181 184 175
169 163 160 163 169 169 170 174 174 184 250 142 117 124 136 152 171 147 146 148 168 162
166 161 164 167 169 169 176 175 172 175 154 128 125 129 136 132 140 152 162 154 161 176
157 153 165 181 179 178 178 179 177 170 152 129 122 122 128 119 107 130 133 140 145 174
145 146 159 173 178 183 186 182 185 169 157 138 127 116 115 111 90 125 146 148 150 152